Tracking 28920 objects as of 25-May-2024
HD Live streaming from Space Station
objects crossing your sky now

COSMOS 1823 DEB

Track COSMOS 1823 DEB now!
10-day predictions


NORAD ID: 20285
Int'l Code: 1987-020DP
Perigee: 1,491.4 km
Apogee: 1,618.5 km
Inclination: 73.6 °
Period: 117.0 minutes
Semi major axis: 7925 km
RCS: 0.0247 m2 (small)
Launch date: February 20, 1987
Source: Commonwealth of Independent States (former USSR) (CIS)
Launch site: PLESETSK MISSILE AND SPACE COMPLEX (PKMTR)

Note: This is SATELLITE DEBRIS
Your satellite tracking list
Your tracking list is empty




NASA's NSSDC Master Catalog

Two Line Element Set (TLE):
1 20285U 87020DP  24139.19976977  .00000212  00000-0  19181-2 0  9995
2 20285  73.6464  56.0047 0080119 211.0727 302.2644 12.30342433504881
Source of the keplerian elements: AFSPC